Tracking 34138 objects as of 15-May-2026
HD Live streaming from Space Station
objects crossing your sky now

STARLINK-37023

Track STARLINK-37023 now!
10-day predictions
STARLINK-37023 is classified as:


NORAD ID: 68076
Int'l Code: 2026-042H
Perigee: 469.0 km
Apogee: 470.6 km
Inclination: 53.2 °
Period: 93.8 minutes
Semi major axis: 6840 km
RCS: Unknown
Launch date: March 4, 2026
Source: United States (US)
Launch site: AIR FORCE EASTERN TEST RANGE (AFETR)
Your satellite tracking list
Your tracking list is empty




NASA's NSSDC Master Catalog

Two Line Element Set (TLE):
1 68076U 26042H   26135.28058062  .00015219  00000-0  46065-3 0  9991
2 68076  53.1593 229.2014 0001172  82.9353 277.1783 15.34399349 12509
Source of the keplerian elements: AFSPC